Terminal Aerodrome Forecast
Issued by NWS

Home | Current Version | Previous Version | Text Only | Print | Product List | Glossary On
Versions: 1 2 3 4 5 6 7 8 9 10 11 12 13 14 15 16 17 18 19 20 21 22 23 24 25 26 27 28 29 30 31 32 33 34
000
FTAK31 PANC 060540 AAA
TAFACD
TAF AMD
PACD 060540Z 0606/0706 28008KT P6SM SCT025 BKN035
      TEMPO 0606/0609 BKN025
     FM060900 24005KT P6SM SCT015 OVC025
     FM061500 18014G24KT 6SM -RA SCT008 BKN015
     FM062000 20020G30KT 4SM -RA SCT004 OVC008=

USA.gov is the U.S. government's official web portal to all federal, state and local government web resources and services.